datetime,growing degree days
2001-03-31,6.28
2001-04-01,5.08
2001-04-02,0.0
2001-04-03,0.0
2001-04-04,0.0
2001-04-05,2.94
2001-04-06,0.0
2001-04-07,0.0
2001-04-08,0.0
2001-04-09,0.0
2001-04-10,0.0
2001-04-11,0.0
2001-04-12,0.0
2001-04-13,0.0
2001-04-14,2.23
2001-04-15,4.0
2001-04-16,6.27
2001-04-17,4.72
2001-04-18,0.0
2001-04-19,0.0
2001-04-20,0.0
2001-04-21,2.81
2001-04-22,3.92
2001-04-23,6.09
2001-04-24,7.42
2001-04-25,7.79
2001-04-26,12.6
2001-04-27,9.63
2001-04-28,0.0
2001-04-29,5.83
2001-04-30,9.06
2001-05-01,1.4
2001-05-02,4.28
2001-05-03,7.92
2001-05-04,11.5
2001-05-05,7.65
2001-05-06,10.65
2001-05-07,16.6
2001-05-08,14.55
2001-05-09,11.85
2001-05-10,14.3
2001-05-11,17.75
2001-05-12,12.35
2001-05-13,12.0
2001-05-14,5.44
2001-05-15,3.7800000000000002
2001-05-16,6.44
2001-05-17,11.35
2001-05-18,11.5
2001-05-19,12.7
2001-05-20,14.25
2001-05-21,15.35
2001-05-22,18.0
2001-05-23,18.0
2001-05-24,18.0
2001-05-25,16.95
2001-05-26,16.55
2001-05-27,12.6
2001-05-28,9.88
2001-05-29,10.8
2001-05-30,15.2
2001-05-31,18.0
2001-06-01,14.05
2001-06-02,6.77
2001-06-03,4.03
2001-06-04,9.23
2001-06-05,5.34
2001-06-06,10.95
2001-06-07,15.45
2001-06-08,15.6
2001-06-09,13.85
2001-06-10,10.35
2001-06-11,8.99
2001-06-12,6.1
2001-06-13,11.05
2001-06-14,13.8
2001-06-15,14.1
2001-06-16,14.95
2001-06-17,14.0
2001-06-18,14.0
2001-06-19,17.65
2001-06-20,18.0
2001-06-21,18.0
2001-06-22,18.0
2001-06-23,16.55
2001-06-24,8.06
2001-06-25,8.93
2001-06-26,7.43
2001-06-27,6.53
2001-06-28,12.65
2001-06-29,16.0
2001-06-30,18.0
2001-07-01,18.0
2001-07-02,18.0
2001-07-03,18.0
2001-07-04,18.36
2001-07-05,22.33
2001-07-06,18.0
2001-07-07,17.95
2001-07-08,18.0
2001-07-09,18.0
2001-07-10,18.36
2001-07-11,15.25
2001-07-12,15.55
2001-07-13,17.5
2001-07-14,16.95
2001-07-15,14.8
2001-07-16,11.5
2001-07-17,11.6
2001-07-18,12.2
2001-07-19,13.65
2001-07-20,12.6
2001-07-21,12.5
2001-07-22,15.55
2001-07-23,18.0
2001-07-24,18.0
2001-07-25,18.0
2001-07-26,18.0
2001-07-27,18.0
2001-07-28,14.05
2001-07-29,13.65
2001-07-30,9.92
2001-07-31,13.7
2001-08-01,17.7
2001-08-02,18.0
2001-08-03,16.4
2001-08-04,15.89
2001-08-05,17.9
2001-08-06,18.0
2001-08-07,18.0
2001-08-08,19.28
2001-08-09,18.85
2001-08-10,18.61
2001-08-11,18.0
2001-08-12,18.0
2001-08-13,18.0
2001-08-14,18.0
2001-08-15,18.0
2001-08-16,18.0
2001-08-17,18.0
2001-08-18,16.15
2001-08-19,17.2
2001-08-20,16.45
2001-08-21,14.25
2001-08-22,12.9
2001-08-23,11.7
2001-08-24,13.65
2001-08-25,18.0
2001-08-26,18.0
2001-08-27,17.7
2001-08-28,17.6
2001-08-29,18.0
2001-08-30,18.0
2001-08-31,17.75
2001-09-01,16.0
2001-09-02,17.45
2001-09-03,17.7
2001-09-04,18.0
2001-09-05,8.21
2001-09-06,12.1
2001-09-07,15.15
2001-09-08,15.5
2001-09-09,17.9
2001-09-10,17.25
2001-09-11,13.25
2001-09-12,14.65
2001-09-13,8.06
2001-09-14,14.8
2001-09-15,12.45
2001-09-16,12.55
2001-09-17,15.35
2001-09-18,16.05
2001-09-19,14.5
2001-09-20,16.85
2001-09-21,15.1
2001-09-22,18.0
2001-09-23,15.25
2001-09-24,16.1
2001-09-25,4.75
2001-09-26,8.85
2001-09-27,10.05
2001-09-28,7.83
2001-09-29,14.6
2001-09-30,17.65
2001-10-01,17.85
2001-10-02,15.8
2001-10-03,16.95
2001-10-04,14.7
2001-10-05,13.55
2001-10-06,11.95
2001-10-07,8.67
2001-10-08,6.48
2001-10-09,4.27
2001-10-10,9.03
2001-10-11,3.0
2001-10-12,7.93
2001-10-13,10.35
2001-10-14,11.15
2001-10-15,13.05
2001-10-16,9.84
2001-10-17,5.52
2001-10-18,7.85
2001-10-19,11.35
2001-10-20,10.95
2001-10-21,8.27
2001-10-22,4.91
2001-10-23,1.03
2001-10-24,2.6
2001-10-25,8.97
2001-10-26,11.4
2001-10-27,6.44
2001-10-28,2.83
2001-10-29,2.27
2001-10-30,2.35
2001-10-31,3.19
2001-11-01,3.16
2001-11-02,4.88
2001-11-03,8.37
2001-11-04,8.74
2001-11-05,5.66
2001-11-06,0.0
2001-11-07,3.19
2001-11-08,8.31
2001-11-09,6.66
2001-11-10,6.38
2001-11-11,3.04
2001-11-12,0.1
2001-11-13,0.0
2001-11-14,2.83
2001-11-15,1.12
2001-11-16,0.0
2001-11-17,0.0
2001-11-18,0.78
2001-11-19,1.42
2001-11-20,0.0
2001-11-21,0.0
2001-11-22,0.0
2001-11-23,0.0
2001-11-24,0.0
2001-11-25,0.0
2001-11-26,0.0
2001-11-27,0.0
2001-11-28,0.0
2001-11-29,0.0
2001-11-30,0.0
2001-12-01,0.0
2001-12-02,0.0
2001-12-03,0.0
2001-12-04,0.0
2001-12-05,0.0
2001-12-06,0.0
2001-12-07,0.0
2001-12-08,0.0
2001-12-09,0.0
2001-12-10,0.0
2001-12-11,0.0
2001-12-12,0.0
2001-12-13,0.0
2001-12-14,0.0
2001-12-15,0.0
2001-12-16,0.0
2001-12-17,0.0
2001-12-18,0.0
2001-12-19,0.0
2001-12-20,0.0
2001-12-21,0.0
2001-12-22,0.0
2001-12-23,0.0
2001-12-24,0.0
2001-12-25,0.0
2001-12-26,0.0
2001-12-27,0.0
2001-12-28,0.0
2001-12-29,0.0
2001-12-30,0.0
2001-12-31,0.0
2002-01-01,0.0
2002-01-02,0.0
2002-01-03,0.0
2002-01-04,0.0
2002-01-05,0.0
2002-01-06,0.0
2002-01-07,0.25
2002-01-08,0.0
2002-01-09,0.0
2002-01-10,0.98
2002-01-11,0.71
2002-01-12,0.0
2002-01-13,0.0
2002-01-14,0.0
2002-01-15,0.0
2002-01-16,0.0
2002-01-17,0.0
2002-01-18,0.0
2002-01-19,0.0
2002-01-20,0.0
2002-01-21,0.0
2002-01-22,0.0
2002-01-23,0.0
2002-01-24,0.0
2002-01-25,0.0
2002-01-26,0.0
2002-01-27,0.0
2002-01-28,0.0
2002-01-29,0.0
2002-01-30,0.0
2002-01-31,0.0
2002-02-01,0.0
2002-02-02,0.0
2002-02-03,0.0
2002-02-04,0.26
2002-02-05,0.0
2002-02-06,0.0
2002-02-07,0.0
2002-02-08,0.0
2002-02-09,0.0
2002-02-10,0.0
2002-02-11,1.13
2002-02-12,2.07
2002-02-13,2.47
2002-02-14,1.01
2002-02-15,1.76
2002-02-16,0.56
2002-02-17,0.0
2002-02-18,0.0
2002-02-19,0.0
2002-02-20,1.74
2002-02-21,4.07
2002-02-22,4.34
2002-02-23,0.0
2002-02-24,0.0
2002-02-25,2.33
2002-02-26,3.35
2002-02-27,4.14
2002-02-28,0.0
2002-03-01,0.0
2002-03-02,0.0
2002-03-03,1.94
2002-03-04,2.9
2002-03-05,0.0
2002-03-06,0.8
2002-03-07,0.0
2002-03-08,0.0
2002-03-09,0.0
2002-03-10,0.0
2002-03-11,0.0
2002-03-12,0.0
2002-03-13,0.0
2002-03-14,0.0
2002-03-15,0.0
2002-03-16,0.0
2002-03-17,0.0
2002-03-18,0.0
2002-03-19,4.74
2002-03-20,6.5
2002-03-21,5.79
2002-03-22,3.48
2002-03-23,0.0
2002-03-24,0.0
2002-03-25,2.3
2002-03-26,4.21
2002-03-27,4.41
2002-03-28,6.78
2002-03-29,8.65
2002-03-30,9.85
2002-03-31,10.9
2002-04-01,11.95
2002-04-02,10.65
2002-04-03,11.15
2002-04-04,13.15
2002-04-05,6.25
2002-04-06,4.11
2002-04-07,6.01
2002-04-08,8.52
2002-04-09,2.27
2002-04-10,4.96
2002-04-11,5.35
2002-04-12,8.92
2002-04-13,9.45
2002-04-14,5.3
2002-04-15,0.0
2002-04-16,0.0
2002-04-17,0.0
2002-04-18,0.0
2002-04-19,1.81
2002-04-20,3.76
2002-04-21,6.41
2002-04-22,8.55
2002-04-23,6.32
2002-04-24,10.85
2002-04-25,9.1
2002-04-26,3.21
2002-04-27,0.0
2002-04-28,2.74
2002-04-29,0.0
2002-04-30,0.0
2002-05-01,6.58
2002-05-02,7.45
2002-05-03,6.01
2002-05-04,7.87
2002-05-05,6.35
2002-05-06,5.3
2002-05-07,1.1
2002-05-08,4.55
2002-05-09,3.66
2002-05-10,0.89
2002-05-11,8.58
2002-05-12,11.9
2002-05-13,9.49
2002-05-14,9.11
2002-05-15,7.21
2002-05-16,11.15
2002-05-17,11.35
2002-05-18,8.82
2002-05-19,1.65
2002-05-20,1.63
2002-05-21,1.82
2002-05-22,3.12
2002-05-23,8.81
2002-05-24,11.9
2002-05-25,12.6
2002-05-26,12.85
2002-05-27,9.64
2002-05-28,11.3
2002-05-29,15.72
2002-05-30,15.35
2002-05-31,15.45
2002-06-01,11.17
2002-06-02,10.2
2002-06-03,12.5
2002-06-04,13.15
2002-06-05,14.2
2002-06-06,12.1
2002-06-07,8.37
2002-06-08,1.17
2002-06-09,4.19
2002-06-10,10.4
2002-06-11,14.6
2002-06-12,16.85
2002-06-13,18.0
2002-06-14,16.45
2002-06-15,18.0
2002-06-16,15.5
2002-06-17,11.8
2002-06-18,8.63
2002-06-19,13.6
2002-06-20,15.9
2002-06-21,16.28
2002-06-22,15.4
2002-06-23,15.4
2002-06-24,17.75
2002-06-25,18.0
2002-06-26,18.43
2002-06-27,18.79
2002-06-28,17.75
2002-06-29,17.79
2002-06-30,14.9
2002-07-01,15.95
2002-07-02,18.0
2002-07-03,16.3
2002-07-04,14.0
2002-07-05,17.15
2002-07-06,18.0
2002-07-07,16.3
2002-07-08,16.95
2002-07-09,18.0
2002-07-10,18.0
2002-07-11,18.0
2002-07-12,20.11
2002-07-13,20.13
2002-07-14,19.36
2002-07-15,18.0
2002-07-16,18.0
2002-07-17,18.0
2002-07-18,17.9
2002-07-19,22.14
2002-07-20,18.0
2002-07-21,18.0
2002-07-22,18.86
2002-07-23,18.0
2002-07-24,18.0
2002-07-25,17.4
2002-07-26,17.5
2002-07-27,17.6
2002-07-28,18.0
2002-07-29,18.0
2002-07-30,17.9
2002-07-31,18.0
2002-08-01,18.0
2002-08-02,16.45
2002-08-03,16.65
2002-08-04,6.55
2002-08-05,9.46
2002-08-06,8.58
2002-08-07,12.2
2002-08-08,16.75
2002-08-09,18.0
2002-08-10,18.0
2002-08-11,18.0
2002-08-12,18.0
2002-08-13,18.0
2002-08-14,18.0
2002-08-15,18.0
2002-08-16,18.0
2002-08-17,17.2
2002-08-18,17.1
2002-08-19,14.95
2002-08-20,9.38
2002-08-21,12.15
2002-08-22,14.65
2002-08-23,14.7
2002-08-24,15.35
2002-08-25,14.3
2002-08-26,13.7
2002-08-27,15.2
2002-08-28,16.65
2002-08-29,17.8
2002-08-30,17.0
2002-08-31,14.9
2002-09-01,17.15
2002-09-02,18.0
2002-09-03,17.55
2002-09-04,14.15
2002-09-05,9.49
2002-09-06,8.09
2002-09-07,8.27
2002-09-08,9.6
2002-09-09,16.1
2002-09-10,18.0
2002-09-11,18.0
2002-09-12,18.0
2002-09-13,18.0
2002-09-14,18.0
2002-09-15,15.39
2002-09-16,10.7
2002-09-17,7.6
2002-09-18,11.6
2002-09-19,16.1
2002-09-20,15.2
2002-09-21,16.65
2002-09-22,18.0
2002-09-23,18.0
2002-09-24,15.95
2002-09-25,14.85
2002-09-26,14.05
2002-09-27,9.6
2002-09-28,11.15
2002-09-29,5.85
2002-09-30,2.8
2002-10-01,1.35
2002-10-02,5.94
2002-10-03,3.98
2002-10-04,7.96
2002-10-05,11.25
2002-10-06,14.2
2002-10-07,14.55
2002-10-08,12.95
2002-10-09,12.35
2002-10-10,8.77
2002-10-11,5.0
2002-10-12,11.15
2002-10-13,12.0
2002-10-14,14.3
2002-10-15,13.4
2002-10-16,13.4
2002-10-17,13.85
2002-10-18,11.85
2002-10-19,10.4
2002-10-20,7.13
2002-10-21,7.05
2002-10-22,7.04
2002-10-23,6.65
2002-10-24,5.06
2002-10-25,4.94
2002-10-26,5.13
2002-10-27,3.5700000000000003
2002-10-28,4.51
2002-10-29,0.0
2002-10-30,0.0
2002-10-31,0.0
2002-11-01,0.0
2002-11-02,2.34
2002-11-03,4.03
2002-11-04,6.96
2002-11-05,7.51
2002-11-06,4.91
2002-11-07,0.27
2002-11-08,0.0
2002-11-09,0.0
2002-11-10,0.0
2002-11-11,0.0
2002-11-12,0.41000000000000003
2002-11-13,0.0
2002-11-14,1.83
2002-11-15,3.18
2002-11-16,3.64
2002-11-17,0.0
2002-11-18,0.0
2002-11-19,6.06
2002-11-20,9.29
2002-11-21,6.14
2002-11-22,4.0
2002-11-23,4.06
2002-11-24,0.0
2002-11-25,1.3900000000000001
2002-11-26,1.55
2002-11-27,4.57
2002-11-28,6.33
2002-11-29,2.07
2002-11-30,1.58
2002-12-01,0.67
2002-12-02,0.38
2002-12-03,1.54
2002-12-04,0.26
2002-12-05,0.0
2002-12-06,2.69
2002-12-07,1.54
2002-12-08,0.0
2002-12-09,0.0
2002-12-10,0.0
2002-12-11,0.0
2002-12-12,0.0
2002-12-13,0.0
2002-12-14,0.35000000000000003
2002-12-15,0.0
2002-12-16,0.0
2002-12-17,0.0
2002-12-18,0.0
2002-12-19,0.0
2002-12-20,0.0
2002-12-21,0.0
2002-12-22,0.0
2002-12-23,0.0
2002-12-24,0.0
2002-12-25,0.0
2002-12-26,0.0
2002-12-27,0.0
2002-12-28,0.0
2002-12-29,0.0
2002-12-30,0.0
2002-12-31,0.0
2003-01-01,0.0
2003-01-02,0.0
2003-01-03,0.25
2003-01-04,1.94
2003-01-05,0.43
2003-01-06,3.06
2003-01-07,3.9
2003-01-08,0.49
2003-01-09,0.0
2003-01-10,0.0
2003-01-11,0.0
2003-01-12,0.0
2003-01-13,0.0
2003-01-14,0.0
2003-01-15,0.0
2003-01-16,0.0
2003-01-17,2.14
2003-01-18,4.08
2003-01-19,3.38
2003-01-20,4.42
2003-01-21,0.79
2003-01-22,0.23
2003-01-23,0.0
2003-01-24,0.0
2003-01-25,1.6400000000000001
2003-01-26,2.35
2003-01-27,0.0
2003-01-28,0.0
2003-01-29,0.0
2003-01-30,1.23
2003-01-31,5.67
2003-02-01,0.0
2003-02-02,0.0
2003-02-03,0.0
2003-02-04,0.0
2003-02-05,0.0
2003-02-06,0.0
2003-02-07,0.0
2003-02-08,0.0
2003-02-09,1.8399999999999999
2003-02-10,2.36
2003-02-11,1.99
2003-02-12,4.4
2003-02-13,0.0
2003-02-14,0.0
2003-02-15,0.0
2003-02-16,0.0
2003-02-17,0.0
2003-02-18,0.0
2003-02-19,0.0
2003-02-20,0.0
2003-02-21,0.65
2003-02-22,0.0
2003-02-23,0.71
2003-02-24,0.0
2003-02-25,0.0
2003-02-26,0.0
2003-02-27,0.0
2003-02-28,0.0
2003-03-01,0.0
2003-03-02,1.9
2003-03-03,0.0
2003-03-04,0.0
2003-03-05,1.78
2003-03-06,0.34
2003-03-07,1.1
2003-03-08,4.39
2003-03-09,0.0
2003-03-10,4.8
2003-03-11,4.96
2003-03-12,5.01
2003-03-13,4.44
2003-03-14,0.91
2003-03-15,0.0
2003-03-16,0.0
2003-03-17,0.0
2003-03-18,0.41000000000000003
2003-03-19,1.49
2003-03-20,0.25
2003-03-21,3.56
2003-03-22,1.46
2003-03-23,0.0
2003-03-24,1.85
2003-03-25,1.35
2003-03-26,0.0
2003-03-27,0.0
2003-03-28,3.05
2003-03-29,8.23
2003-03-30,12.1
2003-03-31,6.85
2003-04-01,0.0
2003-04-02,0.0
2003-04-03,0.0
2003-04-04,0.0
2003-04-05,0.0
2003-04-06,0.0
2003-04-07,4.53
2003-04-08,5.53
2003-04-09,6.9
2003-04-10,4.32
2003-04-11,3.85
2003-04-12,0.0
2003-04-13,0.0
2003-04-14,0.0
2003-04-15,0.0
2003-04-16,0.0
2003-04-17,0.0
2003-04-18,0.35000000000000003
2003-04-19,5.33
2003-04-20,4.85
2003-04-21,0.03
2003-04-22,1.27
2003-04-23,0.5700000000000001
2003-04-24,0.0
2003-04-25,0.0
2003-04-26,0.0
2003-04-27,1.08
2003-04-28,0.0
2003-04-29,0.0
2003-04-30,1.46
2003-05-01,5.4
2003-05-02,3.45
2003-05-03,2.6
2003-05-04,0.0
2003-05-05,2.06
2003-05-06,1.74
2003-05-07,1.75
2003-05-08,0.0
2003-05-09,0.0
2003-05-10,0.91
2003-05-11,2.12
2003-05-12,5.43
2003-05-13,11.9
2003-05-14,10.9
2003-05-15,6.21
2003-05-16,4.48
2003-05-17,1.01
2003-05-18,1.94
2003-05-19,8.24
2003-05-20,10.5
2003-05-21,13.65
2003-05-22,15.8
2003-05-23,18.0
2003-05-24,15.75
2003-05-25,9.54
2003-05-26,11.45
2003-05-27,18.0
2003-05-28,17.15
2003-05-29,18.0
2003-05-30,14.33
2003-05-31,13.15
2003-06-01,13.4
2003-06-02,15.95
2003-06-03,17.2
2003-06-04,15.95
2003-06-05,18.0
2003-06-06,18.0
2003-06-07,18.0
2003-06-08,17.1
2003-06-09,14.6
2003-06-10,14.65
2003-06-11,13.5
2003-06-12,13.25
2003-06-13,12.05
2003-06-14,14.0
2003-06-15,15.15
2003-06-16,18.0
2003-06-17,18.0
2003-06-18,15.93
2003-06-19,11.2
2003-06-20,7.92
2003-06-21,7.74
2003-06-22,7.99
2003-06-23,7.33
2003-06-24,11.3
2003-06-25,14.8
2003-06-26,17.95
2003-06-27,18.0
2003-06-28,18.0
2003-06-29,19.9
2003-06-30,16.99
2003-07-01,14.15
2003-07-02,14.75
2003-07-03,15.5
2003-07-04,16.75
2003-07-05,17.5
2003-07-06,17.4
2003-07-07,16.85
2003-07-08,15.3
2003-07-09,18.0
2003-07-10,18.0
2003-07-11,18.0
2003-07-12,17.55
2003-07-13,14.2
2003-07-14,18.0
2003-07-15,18.0
2003-07-16,18.0
2003-07-17,18.0
2003-07-18,18.0
2003-07-19,18.19
2003-07-20,19.81
2003-07-21,19.73
2003-07-22,22.29
2003-07-23,24.35
2003-07-24,19.61
2003-07-25,23.37
2003-07-26,20.16
2003-07-27,18.0
2003-07-28,18.79
2003-07-29,18.93
2003-07-30,18.75
2003-07-31,19.65
2003-08-01,21.47
2003-08-02,17.13
2003-08-03,13.19
2003-08-04,16.05
2003-08-05,14.01
2003-08-06,12.6
2003-08-07,13.8
2003-08-08,14.25
2003-08-09,14.9
2003-08-10,15.65
2003-08-11,14.6
2003-08-12,14.35
2003-08-13,17.1
2003-08-14,18.0
2003-08-15,18.64
2003-08-16,15.45
2003-08-17,18.0
2003-08-18,18.0
2003-08-19,18.71
2003-08-20,18.0
2003-08-21,9.35
2003-08-22,10.15
2003-08-23,14.75
2003-08-24,17.9
2003-08-25,18.0
2003-08-26,13.25
2003-08-27,17.3
2003-08-28,17.8
2003-08-29,18.0
2003-08-30,18.0
2003-08-31,18.0
2003-09-01,18.0
2003-09-02,18.0
2003-09-03,18.0
2003-09-04,18.0
2003-09-05,18.63
2003-09-06,16.15
2003-09-07,10.95
2003-09-08,7.38
2003-09-09,5.41
2003-09-10,8.67
2003-09-11,13.1
2003-09-12,11.45
2003-09-13,12.0
2003-09-14,14.2
2003-09-15,14.3
2003-09-16,5.69
2003-09-17,7.46
2003-09-18,12.8
2003-09-19,12.2
2003-09-20,16.05
2003-09-21,17.2
2003-09-22,17.65
2003-09-23,18.0
2003-09-24,18.0
2003-09-25,18.0
2003-09-26,18.0
2003-09-27,18.0
2003-09-28,17.65
2003-09-29,14.2
2003-09-30,15.2
2003-10-01,14.0
2003-10-02,13.15
2003-10-03,13.6
2003-10-04,13.05
2003-10-05,13.85
2003-10-06,14.8
2003-10-07,10.65
2003-10-08,11.45
2003-10-09,2.74
2003-10-10,4.24
2003-10-11,8.21
2003-10-12,3.51
2003-10-13,9.75
2003-10-14,6.34
2003-10-15,6.17
2003-10-16,11.5
2003-10-17,13.6
2003-10-18,11.35
2003-10-19,11.45
2003-10-20,12.35
2003-10-21,16.35
2003-10-22,11.85
2003-10-23,7.04
2003-10-24,9.06
2003-10-25,11.75
2003-10-26,15.3
2003-10-27,12.9
2003-10-28,12.3
2003-10-29,0.5
2003-10-30,0.0
2003-10-31,0.0
2003-11-01,0.0
2003-11-02,0.0
2003-11-03,0.0
2003-11-04,0.0
2003-11-05,0.0
2003-11-06,0.0
2003-11-07,0.0
2003-11-08,0.4
2003-11-09,0.0
2003-11-10,0.0
2003-11-11,0.66
2003-11-12,2.6
2003-11-13,1.55
2003-11-14,0.0
2003-11-15,0.0
2003-11-16,0.0
2003-11-17,0.0
2003-11-18,4.53
2003-11-19,3.8200000000000003
2003-11-20,0.0
2003-11-21,0.0
2003-11-22,0.0
2003-11-23,0.0
2003-11-24,0.0
2003-11-25,0.0
2003-11-26,0.0
2003-11-27,0.0
2003-11-28,0.0
2003-11-29,0.0
2003-11-30,0.0
2003-12-01,0.0
2003-12-02,0.0
2003-12-03,1.72
2003-12-04,0.0
2003-12-05,0.0
2003-12-06,0.0
2003-12-07,0.0
2003-12-08,0.0
2003-12-09,0.0
2003-12-10,0.0
2003-12-11,0.0
2003-12-12,0.0
2003-12-13,0.0
2003-12-14,0.0
2003-12-15,0.0
2003-12-16,0.0
2003-12-17,0.0
2003-12-18,0.0
2003-12-19,0.0
2003-12-20,0.0
2003-12-21,0.0
2003-12-22,0.0
2003-12-23,0.0
2003-12-24,0.0
2003-12-25,0.0
2003-12-26,0.0
2003-12-27,0.0
2003-12-28,0.0
2003-12-29,0.0
2003-12-30,0.0
2003-12-31,0.0
2004-01-01,0.0
2004-01-02,0.0
2004-01-03,0.0
2004-01-04,0.0
2004-01-05,0.0
2004-01-06,0.0
2004-01-07,0.0
2004-01-08,0.0
2004-01-09,0.0
2004-01-10,0.0
2004-01-11,0.0
2004-01-12,0.0
2004-01-13,1.3900000000000001
2004-01-14,0.07
2004-01-15,0.0
2004-01-16,0.0
2004-01-17,0.0
2004-01-18,0.0
2004-01-19,0.0
2004-01-20,0.0
2004-01-21,0.0
2004-01-22,0.0
2004-01-23,0.0
2004-01-24,0.0
2004-01-25,0.0
2004-01-26,0.0
2004-01-27,0.0
2004-01-28,0.0
2004-01-29,0.15
2004-01-30,0.0
2004-01-31,0.0
2004-02-01,0.0
2004-02-02,0.0
2004-02-03,0.0
2004-02-04,0.0
2004-02-05,0.0
2004-02-06,0.0
2004-02-07,0.0
2004-02-08,0.0
2004-02-09,0.0
2004-02-10,0.0
2004-02-11,1.6800000000000002
2004-02-12,0.0
2004-02-13,0.0
2004-02-14,0.0
2004-02-15,0.0
2004-02-16,0.0
2004-02-17,0.0
2004-02-18,0.0
2004-02-19,0.0
2004-02-20,0.0
2004-02-21,0.0
2004-02-22,0.0
2004-02-23,0.0
2004-02-24,0.0
2004-02-25,0.0
2004-02-26,0.0
2004-02-27,0.0
2004-02-28,0.0
2004-02-29,0.0
2004-03-01,0.0
2004-03-02,0.0
2004-03-03,0.0
2004-03-04,0.0
2004-03-05,0.0
2004-03-06,2.73
2004-03-07,7.25
2004-03-08,8.42
2004-03-09,8.08
2004-03-10,7.18
2004-03-11,8.13
2004-03-12,8.18
2004-03-13,7.85
2004-03-14,6.38
2004-03-15,7.76
2004-03-16,8.07
2004-03-17,9.37
2004-03-18,10.25
2004-03-19,6.42
2004-03-20,12.55
2004-03-21,12.7
2004-03-22,11.1
2004-03-23,7.22
2004-03-24,2.75
2004-03-25,0.0
2004-03-26,0.0
2004-03-27,1.8900000000000001
2004-03-28,7.62
2004-03-29,10.05
2004-03-30,3.83
2004-03-31,0.0
2004-04-01,0.0
2004-04-02,5.42
2004-04-03,9.88
2004-04-04,9.79
2004-04-05,6.67
2004-04-06,6.6
2004-04-07,7.6
2004-04-08,9.38
2004-04-09,9.14
2004-04-10,9.45
2004-04-11,11.85
2004-04-12,8.74
2004-04-13,3.55
2004-04-14,0.96
2004-04-15,0.0
2004-04-16,0.0
2004-04-17,0.0
2004-04-18,0.0
2004-04-19,0.33
2004-04-20,0.0
2004-04-21,0.0
2004-04-22,5.78
2004-04-23,5.54
2004-04-24,8.56
2004-04-25,13.1
2004-04-26,15.1
2004-04-27,13.75
2004-04-28,3.51
2004-04-29,8.09
2004-04-30,12.1
2004-05-01,13.85
2004-05-02,14.7
2004-05-03,14.7
2004-05-04,12.25
2004-05-05,9.81
2004-05-06,5.32
2004-05-07,6.94
2004-05-08,4.64
2004-05-09,4.33
2004-05-10,0.63
2004-05-11,0.89
2004-05-12,5.28
2004-05-13,9.26
2004-05-14,9.87
2004-05-15,6.08
2004-05-16,7.23
2004-05-17,5.0
2004-05-18,2.88
2004-05-19,6.84
2004-05-20,6.9
2004-05-21,7.76
2004-05-22,5.87
2004-05-23,6.26
2004-05-24,9.08
2004-05-25,10.6
2004-05-26,12.1
2004-05-27,4.28
2004-05-28,3.46
2004-05-29,5.89
2004-05-30,10.1
2004-05-31,11.85
2004-06-01,12.15
2004-06-02,15.1
2004-06-03,16.05
2004-06-04,17.25
2004-06-05,12.0
2004-06-06,7.65
2004-06-07,3.64
2004-06-08,6.39
2004-06-09,1.98
2004-06-10,6.59
2004-06-11,8.63
2004-06-12,8.69
2004-06-13,11.6
2004-06-14,12.65
2004-06-15,15.1
2004-06-16,13.7
2004-06-17,16.5
2004-06-18,16.2
2004-06-19,14.6
2004-06-20,14.05
2004-06-21,17.55
2004-06-22,18.0
2004-06-23,18.0
2004-06-24,17.55
2004-06-25,16.9
2004-06-26,14.7
2004-06-27,18.0
2004-06-28,17.4
2004-06-29,14.58
2004-06-30,16.45
2004-07-01,15.6
2004-07-02,16.8
2004-07-03,15.64
2004-07-04,16.15
2004-07-05,18.0
2004-07-06,18.0
2004-07-07,15.15
2004-07-08,16.0
2004-07-09,15.25
2004-07-10,14.35
2004-07-11,17.35
2004-07-12,18.0
2004-07-13,18.0
2004-07-14,18.0
2004-07-15,18.0
2004-07-16,18.0
2004-07-17,18.0
2004-07-18,20.83
2004-07-19,19.99
2004-07-20,17.15
2004-07-21,18.0
2004-07-22,18.21
2004-07-23,18.58
2004-07-24,18.0
2004-07-25,18.32
2004-07-26,18.0
2004-07-27,18.0
2004-07-28,18.0
2004-07-29,18.0
2004-07-30,18.0
2004-07-31,18.0
2004-08-01,18.0
2004-08-02,15.8
2004-08-03,15.45
2004-08-04,16.8
2004-08-05,13.45
2004-08-06,13.9
2004-08-07,16.75
2004-08-08,18.0
2004-08-09,18.0
2004-08-10,18.0
2004-08-11,18.0
2004-08-12,18.0
2004-08-13,18.56
2004-08-14,20.43
2004-08-15,18.39
2004-08-16,18.0
2004-08-17,16.8
2004-08-18,18.0
2004-08-19,18.0
2004-08-20,18.67
2004-08-21,18.0
2004-08-22,8.94
2004-08-23,9.17
2004-08-24,11.95
2004-08-25,10.85
2004-08-26,8.83
2004-08-27,14.5
2004-08-28,17.3
2004-08-29,18.0
2004-08-30,18.0
2004-08-31,18.0
2004-09-01,15.95
2004-09-02,7.72
2004-09-03,8.78
2004-09-04,14.7
2004-09-05,13.8
2004-09-06,16.7
2004-09-07,16.3
2004-09-08,16.2
2004-09-09,17.05
2004-09-10,17.0
2004-09-11,16.25
2004-09-12,9.35
2004-09-13,5.71
2004-09-14,9.32
2004-09-15,9.67
2004-09-16,12.3
2004-09-17,7.71
2004-09-18,3.71
2004-09-19,3.3
2004-09-20,5.16
2004-09-21,8.84
2004-09-22,14.45
2004-09-23,13.65
2004-09-24,17.4
2004-09-25,16.15
2004-09-26,13.8
2004-09-27,16.6
2004-09-28,16.7
2004-09-29,14.4
2004-09-30,12.35
2004-10-01,13.6
2004-10-02,13.55
2004-10-03,14.45
2004-10-04,14.55
2004-10-05,14.45
2004-10-06,11.9
2004-10-07,13.05
2004-10-08,11.5
2004-10-09,2.24
2004-10-10,5.42
2004-10-11,9.2
2004-10-12,12.75
2004-10-13,15.1
2004-10-14,15.6
2004-10-15,13.7
2004-10-16,11.25
2004-10-17,2.49
2004-10-18,0.0
2004-10-19,0.0
2004-10-20,0.0
2004-10-21,0.0
2004-10-22,0.0
2004-10-23,0.0
2004-10-24,0.42
2004-10-25,0.38
2004-10-26,0.0
2004-10-27,0.0
2004-10-28,0.7000000000000001
2004-10-29,0.85
2004-10-30,0.0
2004-10-31,0.0
2004-11-01,2.1
2004-11-02,5.06
2004-11-03,0.0
2004-11-04,2.26
2004-11-05,5.47
2004-11-06,8.62
2004-11-07,7.23
2004-11-08,8.51
2004-11-09,0.0
2004-11-10,0.0
2004-11-11,0.58
2004-11-12,3.35
2004-11-13,2.49
2004-11-14,2.83
2004-11-15,1.8
2004-11-16,1.85
2004-11-17,0.63
2004-11-18,0.0
2004-11-19,0.0
2004-11-20,0.0
2004-11-21,0.0
2004-11-22,0.27
2004-11-23,0.0
2004-11-24,1.75
2004-11-25,0.0
2004-11-26,0.0
2004-11-27,0.0
2004-11-28,0.0
2004-11-29,0.0
2004-11-30,0.0
2004-12-01,0.0
2004-12-02,0.0
2004-12-03,0.0
2004-12-04,0.0
2004-12-05,0.0
2004-12-06,0.0
2004-12-07,0.0
2004-12-08,0.0
2004-12-09,1.87
2004-12-10,1.1
2004-12-11,0.0
2004-12-12,0.0
2004-12-13,1.4
2004-12-14,0.0
2004-12-15,0.0
2004-12-16,1.56
2004-12-17,0.0
2004-12-18,0.64
2004-12-19,1.2
2004-12-20,0.0
2004-12-21,0.0
2004-12-22,0.0
2004-12-23,0.0
2004-12-24,0.0
2004-12-25,0.0
2004-12-26,0.0
2004-12-27,0.44
2004-12-28,0.0
2004-12-29,0.0
2004-12-30,0.0
2004-12-31,0.0
2005-01-01,0.0
2005-01-02,0.0
2005-01-03,0.0
2005-01-04,0.0
2005-01-05,0.0
2005-01-06,0.0
2005-01-07,0.0
2005-01-08,0.0
2005-01-09,0.0
2005-01-10,0.0
2005-01-11,0.0
2005-01-12,0.0
2005-01-13,0.0
2005-01-14,0.0
2005-01-15,0.0
2005-01-16,0.0
2005-01-17,0.0
2005-01-18,0.0
2005-01-19,0.0
2005-01-20,0.0
2005-01-21,0.0
2005-01-22,0.7000000000000001
2005-01-23,0.33
2005-01-24,0.8
2005-01-25,0.0
2005-01-26,0.0
2005-01-27,0.0
2005-01-28,0.0
2005-01-29,0.0
2005-01-30,0.0
2005-01-31,0.0
2005-02-01,0.0
2005-02-02,2.8200000000000003
2005-02-03,4.11
2005-02-04,0.0
2005-02-05,0.0
2005-02-06,0.0
2005-02-07,0.0
2005-02-08,0.0
2005-02-09,0.0
2005-02-10,1.69
2005-02-11,0.0
2005-02-12,0.0
2005-02-13,0.0
2005-02-14,0.0
2005-02-15,0.0
2005-02-16,0.0
2005-02-17,1.37
2005-02-18,2.45
2005-02-19,0.0
2005-02-20,0.0
2005-02-21,0.32
2005-02-22,1.26
2005-02-23,4.13
2005-02-24,3.51
2005-02-25,3.52
2005-02-26,2.36
2005-02-27,0.6900000000000001
2005-02-28,0.0
2005-03-01,0.0
2005-03-02,0.0
2005-03-03,1.23
2005-03-04,3.46
2005-03-05,4.59
2005-03-06,8.08
2005-03-07,9.29
2005-03-08,9.94
2005-03-09,9.35
2005-03-10,9.54
2005-03-11,11.0
2005-03-12,8.94
2005-03-13,3.3
2005-03-14,3.13
2005-03-15,5.26
2005-03-16,2.1
2005-03-17,0.87
2005-03-18,2.65
2005-03-19,0.0
2005-03-20,0.0
2005-03-21,0.0
2005-03-22,0.0
2005-03-23,0.0
2005-03-24,0.0
2005-03-25,0.0
2005-03-26,2.01
2005-03-27,0.0
2005-03-28,0.0
2005-03-29,0.0
2005-03-30,0.0
2005-03-31,6.35
2005-04-01,4.17
2005-04-02,2.86
2005-04-03,0.0
2005-04-04,0.0
2005-04-05,5.3
2005-04-06,9.34
2005-04-07,0.65
2005-04-08,0.0
2005-04-09,0.16
2005-04-10,3.64
2005-04-11,2.42
2005-04-12,0.0
2005-04-13,0.0
2005-04-14,0.0
2005-04-15,6.39
2005-04-16,6.75
2005-04-17,0.0
2005-04-18,0.0
2005-04-19,1.02
2005-04-20,2.98
2005-04-21,3.68
2005-04-22,9.46
2005-04-23,2.63
2005-04-24,2.17
2005-04-25,4.36
2005-04-26,8.81
2005-04-27,8.08
2005-04-28,4.22
2005-04-29,5.17
2005-04-30,4.11
2005-05-01,4.04
2005-05-02,5.6
2005-05-03,8.18
2005-05-04,5.96
2005-05-05,5.08
2005-05-06,1.16
2005-05-07,3.66
2005-05-08,0.99